Location: Beaurevoir
(49.9971°N, 3.3085°E)
Time: 02:39:54
(UTC+00:00)

Cosmos 1674 Rocket - Pass Details

Date: 23 May 2024
Orbit: 598 x 627 km, 82.5° (Epoch: 16 June)

Event Time Altitude Azimuth Distance (km) Brightness Sun altitude
Exits shadow 02:52:30 - 186° (S) 2,519 6.2 -7.9°
Reaches altitude 10° 02:53:47 10° 186° (S) 1,999 5.7 -7.8°
Maximum altitude 02:58:14 85° 99° (E) 636 3.7 -7.3°
Drops below altitude 10° 03:02:41 10° 11° (N) 2,007 7.1 -6.8°
Sets 03:04:55 0° 11° (N) 2,915 8.0 -6.5°
